Wetbulb
63.99 63.75 62.73 61.30 60.62 60.61 60.36 60.54 60.30 60.11 60.87 61.58 61.84 62.00 62.13 62.29 62.23 62.44 61.91 61.77 62.02 62.22 62.23 62.63 63.22 61.11 58.09 54.36 52.16 57.21 66.95 65.56 57.69 58.69 59.32 59.18 56.69 56.18 53.16 53.46 53.56 49.70 49.20 50.04 49.90 49.54 47.82
63.81 63.42 62.17 60.74 60.17 60.09 59.77 59.35 59.99 59.93 60.57 61.22 61.58 61.95 62.31 62.24 62.10 62.25 62.12 61.72 61.78 61.57 61.93 62.96 62.78 60.12 56.66 50.26 56.28 57.28 56.75 56.10 56.43 58.20 58.08 59.29 57.50 57.92 55.19 52.47 52.90 51.08 48.65 47.99 48.27 47.98 48.21
63.61 62.83 61.69 60.20 59.72 59.44 58.98 59.15 59.63 59.66 60.08 60.88 61.27 61.67 61.96 61.84 61.79 62.08 62.37 61.97 61.76 62.06 61.90 61.59 60.36 57.34 54.01 50.96 56.80 56.94 57.01 56.17 56.02 56.33 55.19 55.99 57.87 57.30 56.03 51.64 52.45 49.75 46.20 47.42 46.68 46.47 44.44
62.93 62.38 61.32 59.66 59.19 58.77 58.70 59.23 59.84 59.77 59.56 60.43 60.78 61.07 61.47 61.17 61.22 61.79 61.56 60.97 61.02 60.79 60.53 62.19 61.09 57.35 50.83 55.67 57.53 55.02 56.14 56.81 56.90 55.82 54.17 54.43 55.67 53.05 52.67 52.96 50.79 48.66 48.18 44.77 44.80 45.43 45.26
62.63 62.01 60.75 59.02 58.59 58.17 58.65 59.54 59.48 59.61 59.46 59.86 60.15 60.29 60.83 60.79 60.64 61.53 60.69 61.28 61.42 61.33 61.23 61.66 56.75 54.97 48.87 59.16 52.92 54.30 54.98 52.64 55.65 54.73 54.51 53.84 54.09 51.00 50.33 47.82 45.97 46.52 42.03 43.59 43.59 44.53 43.65
62.22 61.38 60.40 58.56 58.14 57.84 58.11 58.82 58.60 59.17 59.48 59.26 59.91 59.58 59.60 59.92 59.68 59.97 60.22 60.30 60.72 60.75 60.01 56.94 55.74 52.58 51.57 49.03 51.98 53.26 54.64 53.68 52.73 53.17 51.94 51.92 51.21 48.00 46.16 44.65 39.47 39.95 40.84 42.63 42.33 43.41 42.45
62.61 60.82 59.37 58.04 57.79 57.46 57.70 58.15 58.02 58.74 59.20 59.30 59.28 59.02 58.88 59.37 59.56 59.30 59.84 59.52 56.01 54.13 53.00 49.44 49.48 49.23 49.43 51.68 53.01 51.42 53.35 53.32 53.34 51.57 47.90 49.51 45.27 40.80 42.16 43.19 42.51 42.77 42.13 41.99 42.51 42.57 40.62
62.47 60.24 58.77 57.70 57.36 57.34 57.48 57.39 57.51 58.10 58.93 59.02 59.04 58.61 58.51 58.77 58.07 57.59 60.64 56.16 54.59 55.66 49.68 52.20 50.66 50.25 51.79 51.83 47.90 48.94 53.01 50.65 50.67 47.10 48.56 47.25 40.88 42.90 43.24 43.65 43.37 43.03 41.30 39.89 41.21 42.58 40.35
62.09 60.14 58.51 57.27 56.71 56.85 57.04 57.02 57.48 58.05 58.59 58.75 58.59 57.85 58.15 57.58 57.60 61.14 58.25 55.71 59.10 58.03 52.33 51.17 51.06 48.45 48.93 50.70 45.58 45.54 49.10 49.77 48.42 46.77 45.34 42.09 41.35 43.28 42.99 41.63 40.44 41.90 38.34 37.11 36.89 39.98 40.21
61.82 59.95 58.16 56.71 56.14 56.46 56.92 57.10 57.74 58.19 58.37 57.80 57.28 56.96 57.43 57.28 57.98 59.55 56.97 58.33 60.02 58.94 50.15 47.75 48.52 48.69 49.90 49.99 45.51 48.33 48.74 47.84 47.28 44.47 45.64 42.70 44.13 42.69 41.82 39.82 39.40 40.07 40.27 38.45 37.67 37.42 35.83
61.26 60.15 58.27 56.46 55.71 56.40 56.93 56.88 57.51 57.96 57.77 56.51 56.87 55.72 56.53 57.20 59.03 57.26 57.48 60.24 60.10 58.21 43.22 48.21 48.46 52.04 50.38 46.39 46.22 47.06 49.28 49.07 43.76 43.30 45.40 38.84 40.60 39.10 38.86 38.23 39.70 38.21 39.84 38.90 38.35 37.85 37.41
61.46 60.85 58.54 56.72 56.09 56.26 56.52 56.88 57.43 57.84 57.42 56.16 56.29 55.71 55.80 58.17 59.51 56.91 59.45 59.71 57.88 49.58 41.76 45.90 47.03 45.54 46.69 47.54 45.63 47.07 46.62 47.87 46.11 43.98 43.35 40.97 43.74 39.56 38.67 40.75 40.09 40.50 39.67 40.16 39.26 38.82 33.78
61.34 60.89 58.68 56.48 55.60 55.78 56.43 56.86 57.52 57.86 57.19 55.32 55.33 55.68 57.67 57.51 56.67 58.90 59.83 57.55 50.03 45.43 47.45 44.20 44.58 44.30 44.76 44.02 44.65 43.89 43.17 40.50 39.55 40.53 40.82 40.55 38.39 40.03 40.21 39.03 40.90 38.54 36.95 34.66 33.15 32.92 31.18
61.14 60.68 58.66 56.39 55.16 55.66 56.41 56.71 57.58 57.37 56.46 54.28 54.34 55.09 56.08 56.12 58.72 58.77 58.02 53.37 44.95 45.02 44.99 46.75 44.82 43.89 42.51 43.25 43.38 43.08 42.78 40.67 40.47 39.43 40.55 38.17 37.36 36.49 38.95 36.15 33.73 35.82 35.00 30.30 22.89 26.46 28.22
60.82 60.42 58.46 56.27 55.06 55.36 56.04 56.57 57.40 56.67 56.20 55.08 51.95 58.70 57.90 56.64 56.82 57.47 55.57 48.72 46.42 46.45 46.15 44.93 44.79 43.23 42.66 43.12 43.34 43.18 39.49 38.50 38.00 38.13 36.66 35.82 35.09 38.18 37.28 38.46 37.05 34.61 30.68 33.82 29.47 32.59 29.04
60.35 60.17 58.31 56.31 55.09 54.75 55.34 56.28 57.25 55.85 55.85 53.96 57.95 57.62 55.14 56.57 57.07 57.23 53.31 44.51 45.57 45.91 45.65 45.40 43.12 42.76 42.52 42.26 43.11 43.20 40.77 37.96 37.27 38.38 39.55 36.76 34.67 35.93 36.09 38.61 37.79 34.75 35.43 29.82 31.68 21.96 21.02
60.25 60.11 58.36 56.41 55.22 54.18 54.58 55.30 56.10 55.23 54.61 53.07 56.09 54.96 55.05 56.93 56.68 55.43 49.97 45.51 44.58 45.00 45.31 44.19 42.21 41.55 41.75 41.43 42.07 40.78 38.12 37.20 38.89 38.41 39.41 37.55 35.69 34.68 36.80 32.68 30.97 32.77 30.74 31.74 30.51 28.46 21.79
60.29 60.13 58.42 56.65 55.30 54.02 54.16 54.24 55.59 54.89 53.29 53.01 54.83 51.89 55.35 56.51 52.29 51.53 47.97 45.92 44.69 43.46 44.60 43.20 43.50 42.72 41.70 41.39 41.10 39.77 37.61 37.85 39.98 39.11 35.47 37.30 36.18 33.32 30.64 33.54 34.76 33.31 30.42 30.48 25.52 23.15 26.70
59.99 60.12 58.54 56.90 55.51 54.08 53.85 53.24 54.35 54.40 51.44 57.28 53.93 53.20 56.45 55.68 50.20 46.05 44.40 41.85 43.19 42.44 41.51 41.99 40.77 42.40 42.42 40.32 39.65 40.02 38.23 38.57 40.20 38.98 35.67 37.58 35.68 33.51 29.52 31.25 34.12 30.28 29.82 29.47 28.25 27.39 24.69
59.85 60.01 58.57 57.11 55.78 54.25 53.90 52.87 53.72 54.27 52.86 56.39 54.27 51.34 52.31 52.79 50.90 48.46 44.59 42.53 39.66 41.82 40.80 41.75 40.35 41.57 40.90 39.75 41.55 38.00 37.41 37.63 38.47 39.34 36.84 38.36 35.20 32.67 30.05 29.77 30.16 28.22 27.55 28.04 27.89 24.21 22.85
59.62 59.81 58.58 57.56 56.03 54.41 53.75 53.54 54.08 54.32 52.35 56.18 53.70 50.40 47.84 48.39 47.60 48.24 46.76 43.79 40.50 38.96 41.17 42.03 40.22 40.50 40.44 39.22 38.31 37.82 38.19 36.49 37.07 36.26 36.41 36.58 32.83 32.67 30.38 29.71 29.72 28.60 27.57 27.65 24.52 26.78 21.37
59.35 59.41 58.39 57.73 56.23 55.01 54.04 53.22 54.55 53.95 52.14 56.06 52.56 49.74 48.02 44.11 46.85 45.85 43.38 42.79 41.75 38.61 40.76 39.31 40.72 38.98 40.29 38.66 37.96 36.91 37.49 37.06 35.64 36.31 35.06 35.46 33.24 31.63 29.56 29.42 29.13 26.95 28.44 28.69 28.90 28.10 27.16
59.57 58.89 57.99 57.54 56.56 55.20 53.69 53.09 53.74 53.45 51.15 55.50 52.08 51.48 52.91 39.57 45.50 47.27 44.74 42.48 42.25 41.24 39.21 41.49 41.01 40.34 37.31 36.39 38.59 38.49 38.49 37.62 36.85 35.64 33.20 33.52 33.04 31.04 30.52 28.12 27.92 26.35 29.06 28.07 28.39 29.65 27.91
59.38 58.44 57.61 57.25 56.46 55.13 53.49 54.08 53.96 53.35 51.32 56.66 54.29 53.26 52.16 44.99 46.61 44.69 42.40 42.50 41.29 40.72 38.80 38.87 40.57 40.68 37.16 40.68 40.53 39.76 38.37 37.08 36.35 34.61 35.29 32.69 31.43 30.95 29.39 28.42 23.77 27.72 31.75 30.47 27.95 29.45 30.02
59.11 58.40 57.30 57.03 56.25 54.60 53.43 54.19 54.84 53.73 51.53 55.71 53.30 54.57 52.24 45.45 44.61 41.93 41.91 40.15 40.26 40.45 38.44 37.33 36.77 39.80 41.07 38.94 37.06 33.60 34.03 33.83 32.39 32.74 33.26 34.58 32.78 29.67 28.29 28.80 29.71 26.83 29.00 27.79 25.73 26.09 30.31
58.88 58.54 57.46 56.71 55.75 53.40 53.05 53.04 54.40 54.07 50.77 54.07 50.87 52.97 53.38 46.74 43.14 44.20 41.69 42.63 40.64 39.25 38.19 34.79 39.10 41.40 40.12 39.71 37.10 35.83 35.96 32.42 31.96 30.41 32.91 32.16 32.85 32.13 29.19 24.34 24.33 28.17 30.62 32.01 31.10 24.08 32.03
58.65 58.31 57.40 56.53 55.05 53.36 53.11 52.57 54.63 52.33 51.16 53.81 48.33 50.16 51.36 43.91 40.69 43.53 43.19 41.82 44.26 43.71 39.67 36.94 36.08 36.19 39.03 39.25 38.82 37.76 35.75 32.16 31.44 30.45 30.80 30.67 30.10 29.35 30.16 27.44 30.02 31.24 31.59 32.76 23.67 26.00 32.76
58.39 57.88 57.07 56.07 54.41 53.92 53.37 54.50 52.14 50.97 51.69 53.28 45.84 48.72 50.03 41.86 38.19 40.15 39.58 41.06 40.76 44.40 42.21 39.07 37.75 36.36 37.65 35.95 39.56 36.59 35.85 34.04 31.50 32.46 31.28 30.26 30.26 30.51 27.50 24.62 24.67 32.99 31.72 26.27 31.38 34.08 33.87
58.13 57.42 56.48 55.25 54.36 54.08 53.65 52.94 52.07 50.46 49.61 51.83 44.67 46.32 46.96 42.59 38.19 40.69 39.99 40.17 38.92 39.00 41.05 40.61 40.82 39.42 40.79 39.49 38.13 37.06 33.97 33.37 32.37 33.05 31.72 30.69 32.85 33.30 31.12 31.49 33.37 34.04 33.22 35.19 34.99 33.48 34.30
MSLP
1020.28 1020.03 1020.02 1019.81 1019.54 1019.27 1019.03 1018.76 1018.42 1018.09 1017.77 1017.38 1017.01 1016.70 1016.41 1016.07 1015.88 1015.80 1015.74 1015.66 1015.51 1015.25 1015.01 1014.65 1014.29 1013.72 1013.58 1012.71 1013.94 1013.99 1013.52 1012.64 1011.78 1011.24 1010.85 1010.38 1009.79 1009.83 1010.09 1011.05 1011.72 1012.99 1014.55 1015.89 1016.96 1017.69 1018.62
1020.37 1020.16 1020.18 1019.90 1019.64 1019.33 1019.08 1018.87 1018.55 1018.21 1017.88 1017.47 1017.19 1016.87 1016.44 1016.16 1016.01 1015.92 1015.79 1015.62 1015.40 1015.17 1014.96 1014.55 1014.11 1013.53 1012.74 1013.47 1014.71 1014.14 1013.61 1012.96 1012.37 1011.54 1011.43 1011.01 1010.87 1010.63 1011.27 1011.98 1012.17 1013.69 1015.00 1016.11 1017.21 1018.12 1019.15
1020.36 1020.28 1020.28 1020.03 1019.71 1019.43 1019.13 1018.97 1018.70 1018.31 1017.98 1017.61 1017.33 1016.95 1016.54 1016.36 1016.17 1015.98 1015.78 1015.56 1015.36 1015.24 1014.94 1014.59 1013.92 1013.31 1013.33 1014.97 1014.72 1014.45 1013.94 1013.30 1012.94 1012.40 1012.07 1012.11 1011.66 1011.19 1011.84 1012.85 1013.61 1014.17 1014.94 1015.90 1016.85 1017.71 1019.39
1020.37 1020.36 1020.35 1020.15 1019.82 1019.55 1019.23 1019.06 1018.76 1018.39 1018.07 1017.72 1017.42 1017.06 1016.71 1016.54 1016.29 1016.00 1015.72 1015.56 1015.41 1015.13 1014.87 1014.63 1014.32 1013.11 1014.12 1015.27 1014.97 1014.72 1014.32 1013.19 1013.23 1012.95 1012.73 1012.83 1012.40 1012.42 1012.76 1013.57 1013.64 1013.59 1013.83 1014.38 1017.12 1017.68 1018.81
1020.30 1020.41 1020.45 1020.28 1019.93 1019.66 1019.36 1019.15 1018.79 1018.44 1018.14 1017.83 1017.51 1017.19 1016.85 1016.68 1016.42 1016.04 1015.81 1015.60 1015.36 1015.11 1014.77 1014.28 1013.98 1012.88 1014.36 1014.93 1015.01 1015.09 1014.89 1014.40 1013.43 1013.19 1013.15 1013.10 1012.76 1012.95 1013.23 1012.87 1012.88 1012.92 1013.66 1014.45 1016.29 1018.17 1018.80
1020.36 1020.39 1020.49 1020.37 1020.06 1019.74 1019.46 1019.21 1018.85 1018.48 1018.19 1017.89 1017.57 1017.27 1016.98 1016.81 1016.53 1016.19 1015.90 1015.58 1015.24 1014.99 1014.35 1014.13 1013.93 1013.81 1015.20 1015.78 1015.68 1015.29 1015.09 1014.70 1013.74 1013.19 1013.00 1012.83 1012.92 1013.52 1014.55 1014.14 1014.49 1014.90 1014.89 1015.33 1015.98 1017.50 1018.94
1020.29 1020.39 1020.49 1020.38 1020.15 1019.83 1019.57 1019.31 1018.96 1018.58 1018.30 1017.99 1017.65 1017.33 1017.04 1016.85 1016.60 1016.25 1015.66 1015.28 1014.99 1014.67 1015.44 1015.97 1016.15 1015.78 1016.35 1016.50 1016.01 1015.54 1015.21 1014.25 1013.31 1013.07 1013.04 1014.00 1014.50 1015.92 1016.80 1017.10 1017.07 1016.44 1015.93 1015.66 1016.72 1018.65 1019.57
1020.24 1020.39 1020.48 1020.39 1020.20 1019.90 1019.67 1019.45 1019.12 1018.71 1018.37 1018.09 1017.69 1017.37 1017.08 1016.89 1016.60 1016.17 1015.55 1014.98 1016.20 1016.12 1016.50 1016.85 1016.63 1016.73 1017.15 1016.90 1016.01 1016.29 1015.89 1014.52 1013.82 1013.71 1014.09 1014.73 1016.64 1018.31 1018.44 1018.17 1017.39 1016.75 1016.59 1016.93 1017.30 1018.19 1019.56
1020.20 1020.38 1020.45 1020.39 1020.25 1020.00 1019.78 1019.56 1019.27 1018.83 1018.43 1018.12 1017.75 1017.37 1017.09 1016.89 1016.62 1016.14 1015.90 1016.70 1016.96 1016.53 1015.65 1017.05 1017.21 1017.48 1017.90 1017.74 1017.91 1017.86 1017.63 1016.26 1015.65 1015.48 1016.08 1016.85 1019.22 1019.39 1018.99 1019.04 1018.27 1017.42 1017.98 1018.29 1018.52 1018.37 1019.48
1020.23 1020.34 1020.41 1020.38 1020.27 1020.08 1019.87 1019.63 1019.32 1018.90 1018.53 1018.16 1017.78 1017.32 1017.10 1016.92 1017.09 1016.38 1016.56 1017.26 1017.15 1017.03 1015.61 1017.23 1017.25 1017.95 1017.88 1017.93 1018.41 1019.03 1018.84 1018.22 1017.11 1017.45 1017.84 1019.12 1020.21 1019.99 1019.96 1020.04 1020.01 1018.24 1018.95 1018.92 1018.49 1018.49 1018.72
1020.21 1020.31 1020.40 1020.40 1020.26 1020.09 1019.90 1019.69 1019.33 1018.95 1018.64 1018.20 1017.79 1017.40 1017.14 1016.91 1016.42 1016.45 1017.44 1017.38 1017.17 1016.81 1015.65 1018.00 1017.93 1018.47 1018.12 1018.26 1019.26 1019.08 1019.37 1018.16 1018.50 1018.75 1018.72 1021.04 1021.36 1021.46 1021.20 1021.77 1021.35 1020.12 1019.46 1018.36 1018.59 1018.74 1019.07
1019.99 1020.27 1020.35 1020.37 1020.26 1020.10 1019.89 1019.71 1019.32 1019.00 1018.72 1018.30 1017.86 1017.53 1017.29 1016.86 1016.63 1017.87 1017.68 1017.50 1017.11 1016.38 1016.91 1018.02 1018.42 1018.44 1017.92 1018.71 1019.36 1019.52 1019.47 1019.66 1020.12 1019.69 1020.35 1021.72 1022.65 1023.30 1023.34 1022.42 1022.37 1021.32 1018.71 1017.91 1018.62 1018.60 1018.33
1019.88 1020.17 1020.30 1020.28 1020.24 1020.12 1019.89 1019.70 1019.38 1019.11 1018.89 1018.64 1018.13 1017.70 1017.40 1017.48 1017.41 1017.96 1017.65 1016.84 1015.68 1015.73 1018.35 1018.52 1018.83 1018.92 1018.79 1019.44 1019.80 1020.31 1020.55 1021.08 1021.37 1020.64 1020.55 1021.83 1023.09 1023.98 1024.19 1022.61 1022.38 1022.07 1019.84 1018.40 1018.54 1018.49 1018.68
1019.76 1020.10 1020.23 1020.26 1020.23 1020.15 1019.96 1019.71 1019.44 1019.18 1018.96 1018.80 1018.31 1017.82 1018.21 1018.20 1018.10 1017.91 1017.13 1016.10 1015.99 1017.96 1018.54 1019.56 1019.61 1019.40 1019.39 1020.30 1020.61 1020.98 1021.07 1022.01 1023.31 1023.22 1022.30 1022.30 1022.97 1024.86 1025.64 1025.47 1025.07 1023.85 1023.23 1023.03 1022.60 1021.00 1020.74
1019.66 1020.02 1020.15 1020.25 1020.21 1020.17 1020.01 1019.78 1019.49 1019.28 1019.06 1018.89 1018.60 1017.35 1017.40 1018.10 1018.22 1017.78 1016.74 1015.88 1018.28 1018.92 1020.13 1019.98 1019.84 1019.30 1019.81 1020.56 1020.98 1021.41 1023.07 1024.35 1025.45 1025.44 1024.83 1024.11 1024.75 1026.13 1026.63 1026.55 1025.82 1024.99 1025.31 1026.48 1025.26 1023.48 1022.74
1019.58 1019.90 1020.08 1020.18 1020.22 1020.18 1020.01 1019.81 1019.56 1019.31 1019.13 1019.03 1017.84 1017.25 1017.82 1018.24 1018.04 1017.34 1016.28 1018.51 1020.09 1021.30 1021.49 1021.20 1020.17 1020.57 1020.10 1020.99 1021.08 1021.82 1023.89 1026.48 1026.80 1027.12 1026.80 1025.90 1025.46 1026.52 1027.11 1027.08 1027.18 1027.23 1027.47 1026.96 1026.58 1026.01 1024.70
1019.45 1019.75 1019.95 1020.04 1020.18 1020.18 1020.04 1019.85 1019.69 1019.47 1019.23 1019.15 1018.12 1016.85 1018.15 1018.16 1017.79 1016.79 1017.28 1019.95 1021.49 1022.64 1022.71 1022.15 1021.53 1021.30 1021.70 1022.04 1022.62 1023.41 1025.63 1027.59 1028.09 1027.88 1027.55 1026.94 1026.42 1026.77 1027.19 1028.61 1028.86 1028.17 1028.46 1028.50 1029.00 1028.76 1028.55
1019.25 1019.58 1019.73 1019.93 1020.03 1020.16 1020.14 1019.92 1019.77 1019.62 1019.43 1019.19 1017.98 1017.11 1018.32 1018.15 1017.42 1018.16 1019.33 1021.23 1022.61 1023.13 1023.33 1023.11 1022.83 1022.71 1022.80 1023.33 1023.84 1024.90 1026.56 1028.16 1029.34 1029.11 1028.13 1028.18 1027.51 1027.06 1028.79 1030.17 1030.53 1030.70 1030.73 1030.68 1030.72 1030.61 1030.09
1018.90 1019.34 1019.55 1019.78 1019.95 1020.08 1020.19 1020.06 1019.88 1019.76 1019.74 1018.79 1017.63 1017.94 1018.33 1018.03 1017.92 1019.39 1021.35 1022.49 1023.27 1023.58 1023.93 1023.64 1023.80 1023.90 1024.10 1024.36 1025.12 1026.20 1027.77 1029.78 1030.01 1029.83 1029.49 1029.05 1027.89 1027.63 1029.32 1030.70 1030.95 1031.35 1032.22 1032.57 1032.66 1032.58 1031.23
1018.66 1019.08 1019.32 1019.51 1019.81 1020.06 1020.12 1020.09 1020.02 1019.85 1019.80 1019.60 1018.35 1018.13 1018.36 1018.49 1019.16 1019.16 1020.63 1022.20 1023.63 1024.57 1024.65 1024.58 1024.69 1024.67 1024.69 1025.17 1025.95 1027.05 1028.44 1030.03 1030.55 1030.38 1030.66 1030.01 1028.94 1028.90 1029.70 1030.51 1031.68 1031.88 1032.89 1033.37 1033.30 1032.86 1032.34
1018.15 1018.78 1019.18 1019.44 1019.67 1019.91 1020.02 1019.98 1020.07 1019.91 1019.92 1019.83 1019.05 1019.45 1020.14 1019.74 1019.78 1019.86 1020.82 1022.18 1023.34 1024.46 1024.98 1025.04 1025.20 1025.14 1025.27 1025.97 1026.57 1027.59 1028.85 1030.10 1030.66 1030.93 1030.60 1030.05 1029.41 1029.82 1030.73 1031.43 1031.89 1032.44 1032.97 1033.49 1033.94 1033.77 1033.52
1017.71 1018.30 1018.81 1019.14 1019.41 1019.73 1019.88 1019.96 1019.84 1020.01 1020.06 1019.69 1019.66 1020.06 1020.93 1021.60 1021.15 1021.42 1022.22 1022.59 1023.22 1024.97 1025.35 1025.31 1025.31 1026.16 1026.24 1026.84 1027.71 1028.14 1028.94 1029.61 1030.10 1030.70 1030.71 1030.74 1030.24 1030.49 1030.75 1031.66 1032.15 1032.52 1033.08 1033.58 1033.49 1033.65 1033.57
1017.32 1017.81 1018.40 1018.72 1019.04 1019.42 1019.64 1019.83 1019.76 1019.99 1020.33 1019.30 1020.35 1020.49 1020.02 1022.34 1021.93 1021.73 1022.18 1022.82 1023.63 1024.76 1026.68 1026.26 1026.45 1026.90 1028.02 1029.11 1029.28 1029.62 1029.90 1030.38 1030.74 1030.82 1031.06 1031.08 1030.87 1030.79 1030.29 1031.63 1032.13 1032.47 1032.67 1033.44 1033.80 1033.67 1033.99
1016.94 1017.37 1017.93 1018.36 1018.66 1019.04 1019.29 1019.54 1019.71 1019.80 1020.20 1019.17 1019.60 1019.60 1020.14 1022.14 1022.39 1022.61 1023.18 1023.60 1024.53 1025.26 1026.06 1027.86 1027.86 1028.00 1030.29 1030.34 1030.29 1030.34 1030.51 1030.83 1031.28 1031.78 1032.03 1031.62 1031.62 1031.68 1031.11 1031.45 1031.71 1032.59 1033.41 1034.04 1034.19 1033.99 1034.21
1016.45 1017.09 1017.44 1017.98 1018.31 1018.67 1018.92 1019.14 1019.46 1019.62 1020.02 1019.56 1020.23 1019.78 1020.35 1022.27 1023.04 1023.86 1024.19 1024.87 1025.81 1026.59 1027.54 1028.96 1029.81 1029.92 1030.53 1030.57 1030.27 1030.23 1030.29 1030.88 1031.61 1032.34 1032.38 1032.34 1032.11 1032.18 1032.03 1031.02 1031.28 1032.81 1033.54 1034.22 1034.46 1033.92 1034.41
1015.95 1016.76 1017.04 1017.57 1017.98 1018.33 1018.63 1018.79 1019.03 1019.48 1019.82 1019.90 1021.13 1021.04 1020.74 1022.25 1024.28 1024.33 1024.95 1025.41 1025.63 1026.75 1028.41 1030.38 1031.07 1031.27 1031.19 1030.49 1030.05 1029.66 1029.42 1030.16 1030.81 1032.02 1032.82 1032.78 1032.68 1032.43 1032.10 1031.92 1031.35 1032.56 1033.76 1034.64 1034.90 1034.17 1034.59
1015.42 1016.30 1016.67 1017.14 1017.62 1017.97 1018.33 1018.44 1018.58 1019.28 1019.68 1019.69 1021.68 1021.89 1021.46 1024.00 1026.32 1025.98 1025.87 1026.18 1026.11 1026.60 1028.02 1029.88 1031.07 1031.50 1031.55 1030.46 1029.77 1029.30 1029.42 1030.45 1030.57 1030.97 1031.64 1032.32 1032.68 1032.47 1032.06 1032.07 1031.67 1032.85 1034.04 1034.71 1034.62 1034.82 1034.42
1014.94 1015.74 1016.20 1016.68 1017.26 1017.72 1018.12 1018.38 1018.75 1019.19 1019.65 1019.43 1022.28 1022.28 1021.75 1024.97 1027.77 1028.03 1028.13 1027.71 1028.01 1027.67 1027.78 1029.35 1030.52 1031.23 1031.12 1030.52 1029.62 1029.50 1029.62 1030.21 1030.63 1030.89 1031.37 1031.79 1032.20 1032.34 1032.75 1032.65 1032.39 1033.46 1034.36 1034.63 1034.93 1034.96 1035.02
1014.53 1015.25 1015.78 1016.19 1016.93 1017.44 1017.91 1018.44 1018.82 1019.10 1019.54 1019.65 1021.88 1022.85 1022.93 1024.69 1028.72 1029.58 1030.01 1030.14 1030.11 1029.68 1028.77 1029.36 1029.39 1029.55 1029.90 1029.74 1029.90 1030.11 1030.16 1030.69 1030.72 1030.50 1031.85 1031.69 1031.96 1032.21 1032.24 1032.02 1032.92 1033.87 1034.43 1034.95 1035.35 1035.37 1035.31
Wind_Speed
6 8 9 10 11 12 13 12 13 13 13 13 12 10 9 8 7 6 5 5 5 5 7 8 9 9 7 8 8 17 14 10 10 6 7 8 4 3 5 13 16 16 14 14 15 18 19
5 7 8 10 11 11 12 13 13 13 13 13 12 10 9 9 8 7 5 5 6 6 7 9 7 10 3 11 9 14 14 13 15 8 12 13 11 10 10 7 8 12 15 13 13 12 9
4 7 9 9 10 11 12 13 13 13 13 12 12 11 10 9 9 7 5 5 6 6 7 8 11 6 16 10 8 13 12 12 11 13 10 12 6 3 6 10 14 16 13 10 5 6 7
2 6 8 9 10 11 12 12 12 12 13 13 12 11 10 10 9 7 5 3 3 5 5 6 8 4 7 4 7 16 15 3 9 10 8 7 5 10 6 6 6 6 5 5 9 8 5
2 5 7 9 10 11 12 11 11 12 13 13 11 10 9 10 9 6 5 2 5 6 6 7 4 4 5 2 15 14 13 8 9 3 8 5 7 10 1 5 7 3 11 13 5 9 8
1 4 6 8 9 10 12 12 12 12 12 12 11 9 9 9 10 8 8 5 7 3 6 3 8 6 8 10 10 14 12 9 4 3 1 4 5 9 14 13 7 13 13 12 9 8 7
3 3 5 7 9 10 11 12 12 11 11 11 10 9 8 8 8 9 7 5 7 4 18 10 8 7 7 12 4 17 19 8 1 5 4 10 12 12 13 12 6 9 10 12 17 7 11
3 1 5 7 9 9 11 11 11 11 11 11 10 9 6 7 8 10 7 4 5 4 10 8 10 8 6 11 5 23 22 3 13 10 2 8 16 10 4 12 13 7 10 14 6 2 7
4 2 5 7 9 9 10 11 11 10 10 10 9 7 5 5 9 5 6 6 4 6 1 6 6 7 6 9 10 16 16 5 9 15 20 18 9 5 7 12 17 4 13 16 19 17 3
4 2 5 6 8 9 10 10 11 10 9 9 6 5 4 5 3 2 4 2 4 4 6 8 8 8 10 1 5 11 11 4 7 10 8 10 11 10 9 11 16 7 17 16 14 9 5
4 2 5 6 7 8 9 10 10 9 9 8 3 5 6 1 3 2 4 3 5 4 5 6 5 4 7 7 4 18 11 11 14 14 4 6 9 15 12 11 14 9 25 20 8 8 6
5 4 5 6 7 8 9 10 10 9 9 6 3 4 3 2 3 3 3 4 5 7 4 3 4 8 0 12 5 6 11 8 1 7 16 11 6 9 11 9 5 22 23 7 4 5 4
6 5 5 5 6 8 8 9 9 7 5 6 7 11 5 2 3 4 4 4 7 4 2 4 4 5 4 9 8 9 9 17 9 7 9 8 16 5 19 9 1 22 20 5 4 5 7
8 7 5 5 6 8 9 9 9 7 4 3 3 4 5 6 3 4 4 6 4 3 4 2 2 1 5 9 6 9 2 7 14 12 6 8 1 14 15 15 9 13 14 7 8 10 12
9 7 6 5 5 7 9 9 8 5 5 7 9 4 3 6 5 4 6 4 7 5 3 1 2 3 5 4 4 3 9 7 10 14 9 9 6 5 8 9 16 9 8 5 7 7 8
10 8 7 5 5 6 8 9 8 5 2 6 3 2 4 7 6 5 3 5 3 3 3 3 3 4 4 7 2 4 7 6 6 8 7 7 3 5 3 4 12 8 8 1 4 9 10
11 10 8 7 5 5 7 8 9 5 3 6 4 3 4 7 5 2 1 6 5 4 3 5 3 2 5 5 6 5 7 3 6 7 6 6 3 5 2 9 11 7 7 5 3 3 5
12 11 10 8 6 4 6 7 8 6 6 3 3 3 5 5 3 3 4 4 2 4 2 3 3 6 5 4 5 4 5 6 7 6 5 6 6 4 5 5 5 10 7 6 4 6 5
14 13 11 9 7 5 4 7 7 6 3 4 1 2 2 4 3 4 5 5 4 3 3 2 3 4 2 3 1 3 5 3 5 6 6 7 3 3 7 5 5 4 5 2 1 4 3
14 14 13 11 9 5 2 5 6 5 6 4 2 2 3 3 2 8 9 7 6 3 4 4 4 1 3 4 6 4 4 2 3 4 5 5 3 5 5 5 3 2 1 3 5 5 10
16 14 12 10 9 7 4 2 5 3 4 3 3 2 4 3 3 8 5 6 9 5 3 0 3 3 3 3 3 4 4 4 2 1 1 4 2 2 3 2 2 4 3 3 3 8 6
17 15 14 12 10 8 6 4 1 3 4 2 2 4 4 3 5 10 2 6 9 6 2 3 3 4 3 4 5 3 3 1 4 2 1 3 1 3 2 2 5 5 4 6 7 8 12
18 17 15 13 11 9 7 6 5 7 5 2 2 1 1 2 6 4 3 8 9 11 6 5 10 10 11 9 9 9 9 7 5 2 2 3 2 3 2 1 3 6 2 3 9 10 10
18 16 15 14 12 10 8 7 8 9 7 2 1 3 3 4 3 3 6 6 12 2 8 6 2 4 6 11 12 10 10 10 9 8 5 2 3 1 4 2 3 5 2 4 10 12 4
18 18 16 14 12 10 9 8 10 11 10 1 2 1 3 5 6 10 12 12 14 12 10 10 6 7 13 4 3 4 4 3 5 5 5 6 1 1 3 6 3 4 1 5 7 11 1
20 19 17 15 12 10 9 8 10 14 11 4 3 4 3 9 2 10 11 11 8 7 6 6 8 7 2 2 1 1 3 2 2 4 1 2 2 2 2 3 4 4 3 2 4 2 8
20 20 17 16 13 11 8 7 12 17 10 5 4 5 5 7 3 3 3 5 3 4 6 7 8 4 3 2 1 1 2 2 2 3 2 1 2 2 1 3 1 5 3 1 5 7 13
21 21 18 17 14 11 11 12 16 15 12 4 6 4 4 6 6 6 4 4 3 5 5 10 6 2 2 1 1 2 1 2 3 1 2 3 2 1 1 3 4 7 4 2 6 8 12
22 21 20 18 15 13 15 16 16 15 11 6 5 7 11 10 7 9 13 11 7 7 4 9 3 5 5 2 1 3 2 3 2 1 3 3 2 1 5 3 5 3 2 3 3 8 10
Wind_Direction
11 26 7 4 -0 359 357 352 351 355 350 347 349 348 348 353 2 1 357 340 329 320 327 317 314 280 267 73 22 340 328 353 354 1 19 352 17 15 78 93 88 98 103 87 86 84 84
357 25 3 2 358 358 358 349 350 353 348 348 346 347 353 356 359 358 352 332 315 319 320 308 295 302 222 73 345 350 357 12 14 36 47 34 36 56 68 26 19 99 104 99 87 85 88
17 25 2 358 356 356 356 347 348 353 347 347 346 350 359 -0 354 349 341 324 313 312 317 331 329 331 61 47 3 357 346 23 29 30 63 36 20 60 98 94 106 127 115 121 65 102 117
54 30 1 352 354 351 352 346 348 351 348 346 347 351 1 359 355 357 343 340 23 0 313 292 300 279 62 33 344 7 3 14 18 41 63 40 55 76 41 110 174 243 243 253 64 14 107
109 35 355 347 350 348 348 345 349 349 346 343 346 353 360 358 354 1 353 253 255 289 326 284 290 312 59 60 13 348 3 347 319 19 60 62 70 64 138 261 216 182 342 346 115 52 5
96 41 346 340 345 347 345 344 349 348 343 341 340 350 357 355 352 347 309 298 324 235 262 236 27 145 48 356 347 346 358 333 342 297 131 48 62 59 36 16 20 334 332 330 330 25 351
187 36 337 336 340 346 341 342 345 347 341 333 335 342 354 345 335 332 299 221 214 111 44 56 26 62 21 345 284 9 345 308 293 52 79 45 62 41 32 24 345 305 300 320 347 65 323
209 9 325 333 335 344 339 340 340 344 340 328 330 334 345 335 319 308 280 350 39 76 87 57 53 59 31 323 357 11 346 43 38 46 164 119 53 28 20 13 334 333 348 346 318 302 321
204 300 314 328 333 340 339 338 335 341 338 328 326 332 333 331 324 301 54 62 351 334 155 64 55 27 4 353 36 358 4 3 21 47 52 59 25 2 12 18 352 65 1 338 314 315 135
204 255 303 320 329 337 338 335 333 339 335 330 334 15 7 327 307 100 80 63 339 331 217 26 12 39 355 325 69 27 6 335 54 35 58 58 23 14 20 22 352 306 356 321 321 317 355
188 255 292 310 327 335 337 332 335 340 337 332 324 24 41 40 48 212 57 331 322 237 242 17 25 332 17 57 326 22 14 43 56 25 250 55 31 17 26 1 351 326 315 288 283 285 307
175 253 277 303 323 332 339 331 337 339 344 358 51 24 312 200 95 44 313 300 250 230 85 76 15 354 158 35 45 2 28 48 25 67 74 74 71 34 356 313 336 331 323 81 193 258 230
187 235 266 295 317 328 339 334 336 337 339 321 44 60 45 347 66 348 298 243 248 343 178 67 12 5 58 25 43 28 52 46 30 327 36 131 51 93 10 353 185 1 354 352 341 334 9
183 226 246 283 311 326 335 336 338 336 358 27 329 226 86 58 6 309 244 241 279 36 35 87 333 2 54 353 56 27 54 51 31 353 316 344 231 20 18 31 322 356 10 25 319 343 317
185 213 231 263 298 323 336 337 341 330 293 288 305 127 78 24 348 281 260 255 25 40 23 312 234 270 104 72 344 89 55 38 23 11 5 346 85 122 34 14 10 346 24 340 288 284 292
192 209 222 243 281 318 336 340 343 338 283 296 282 138 61 338 325 255 267 71 84 47 338 273 352 347 19 19 333 40 36 15 11 20 338 24 273 34 40 250 58 44 350 358 319 346 317
198 206 216 225 258 307 332 342 345 333 283 327 264 193 39 329 265 242 25 66 110 69 355 348 42 80 56 29 18 48 34 77 9 354 334 343 266 104 237 31 9 9 25 8 269 15 310
201 209 208 221 232 278 326 341 347 334 302 294 296 196 19 311 166 24 92 91 83 106 80 63 55 44 46 38 52 76 73 38 3 339 5 18 317 19 52 99 43 42 27 1 357 342 310
203 210 206 212 225 246 316 333 343 338 323 312 304 77 71 292 156 107 126 98 65 139 53 77 89 21 45 78 91 62 77 37 16 14 12 2 60 283 174 186 185 42 25 17 219 240 265
206 209 206 203 214 231 275 322 332 335 288 286 249 146 100 79 341 141 142 136 116 52 88 66 103 127 142 97 41 120 107 101 24 39 351 288 360 7 343 360 338 307 349 333 322 283 327
198 206 211 207 206 215 228 279 322 299 256 288 352 74 1 143 146 138 99 142 137 128 77 134 110 56 57 104 107 98 102 141 119 56 337 328 323 7 27 42 288 322 272 256 241 308 293
194 198 205 204 206 210 223 245 226 221 226 247 152 144 73 60 110 125 140 161 141 120 341 116 143 98 47 76 29 123 132 306 41 125 27 4 22 298 216 269 292 263 237 277 292 304 303
190 192 202 201 203 203 217 231 203 202 213 163 113 85 144 215 166 189 126 146 149 131 54 43 122 110 81 75 80 78 74 76 75 11 71 340 333 298 13 326 298 228 232 284 319 328 318
190 190 198 202 200 202 214 225 211 193 214 15 155 153 151 128 161 97 133 117 125 100 125 96 58 104 113 123 112 97 89 85 74 62 13 37 22 344 310 246 259 85 60 338 312 301 310
189 197 195 200 198 204 216 217 215 187 202 190 124 222 129 110 113 119 127 119 112 86 84 73 40 90 143 145 133 148 140 173 81 44 44 11 35 324 298 304 72 156 190 349 342 312 341
191 203 195 195 192 198 212 214 202 179 177 106 71 314 84 116 179 130 136 159 141 111 114 86 117 93 189 186 125 42 18 13 131 165 86 25 54 282 16 313 307 68 125 337 297 213 341
188 202 195 191 186 189 192 210 182 166 178 120 87 351 97 102 75 214 131 166 122 119 93 133 163 186 276 174 165 32 95 24 291 278 106 188 299 275 310 284 208 129 118 170 292 1 336
188 196 192 183 179 181 168 160 154 149 149 96 89 15 88 93 76 27 13 116 136 155 145 134 131 198 158 115 169 104 240 98 249 70 280 267 192 171 101 260 272 144 163 271 358 327 332
189 193 190 172 173 171 165 163 161 146 152 131 105 81 69 71 82 94 76 52 31 353 91 168 35 138 162 117 212 101 160 159 359 253 192 241 254 318 221 359 93 138 351 16 307 316 325